GW6432 Weather Reports


time (UTC)temp
C
wind
direction
speed
KPH
gust
KPH
rain 1hr
cm
rain 24hr
cm
rain mn
cm
humidity
%
barometer
mb
20260505221545 29 172 6.4 19.3 0.00 0.00 0.00 71 1005.8
20260505221038 29 196 8.0 19.3 0.00 0.00 0.00 70 1005.8
20260505220537 29 137 6.4 19.3 0.00 0.00 0.00 70 1005.8
20260505220049 30 174 6.4 20.9 0.00 0.00 0.00 70 1006.0
20260505215536 30 129 8.0 20.9 0.00 0.00 0.00 70 1006.0
20260505215037 30 180 8.0 19.3 0.00 0.00 0.00 70 1005.9
20260505214556 30 186 6.4 19.3 0.00 0.00 0.00 71 1005.9
20260505214035 30 175 8.0 19.3 0.00 0.00 0.00 70 1006.0
20260505213536 30 209 6.4 19.3 0.00 0.00 0.00 71 1006.0
20260505213048 30 93 6.4 19.3 0.00 0.00 0.00 70 1006.1
20260505212535 30 213 8.0 17.7 0.00 0.00 0.00 70 1006.1
20260505212038 30 206 4.8 19.3 0.00 0.00 0.00 71 1006.2
20260505211552 30 182 8.0 19.3 0.00 0.00 0.00 68 1006.2
20260505211036 30 205 6.4 16.1 0.00 0.00 0.00 69 1006.4
20260505210535 30 202 6.4 16.1 0.00 0.00 0.00 71 1006.4
20260505210047 30 159 6.4 19.3 0.00 0.00 0.00 70 1006.6
20260505205536 30 234 9.7 19.3 0.00 0.00 0.00 69 1006.6
20260505205036 30 161 4.8 16.1 0.00 0.00 0.00 71 1006.7
20260505204546 30 223 4.8 22.5 0.00 0.00 0.00 71 1006.8
20260505204036 30 200 8.0 22.5 0.00 0.00 0.00 70 1006.8
20260505203536 30 213 11.3 24.1 0.00 0.00 0.00 69 1006.8
20260505203100 30 143 9.7 24.1 0.00 0.00 0.00 71 1007.0
20260505202536 30 209 8.0 22.5 0.00 0.00 0.00 71 1007.0
20260505202036 29 185 6.4 20.9 0.00 0.00 0.00 71 1006.9
20260505201548 29 235 9.7 20.9 0.00 0.00 0.00 70 1007.0
20260505201037 29 213 8.0 19.3 0.00 0.00 0.00 71 1007.1
20260505200536 29 209 8.0 19.3 0.00 0.00 0.00 69 1007.2
20260505200048 30 171 8.0 19.3 0.00 0.00 0.00 69 1007.3
20260505195539 30 224 4.8 17.7 0.00 0.00 0.00 71 1007.3
20260505195036 29 352 4.8 17.7 0.00 0.00 0.00 71 1007.3
20260505194547 29 212 8.0 16.1 0.00 0.00 0.00 71 1007.5
20260505194037 29 242 6.4 16.1 0.00 0.00 0.00 71 1007.4
20260505193535 28 105 4.8 16.1 0.00 0.00 0.00 72 1007.5
20260505193045 28 153 6.4 19.3 0.00 0.00 0.00 72 1007.6
20260505192540 28 124 6.4 20.9 0.00 0.00 0.00 72 1007.7
20260505192036 28 144 8.0 20.9 0.00 0.00 0.00 72 1007.7
20260505191551 28 311 8.0 22.5 0.00 0.00 0.00 71 1007.9
20260505191037 28 116 8.0 22.5 0.00 0.00 0.00 72 1007.8
20260505190536 28 217 6.4 16.1 0.00 0.00 0.00 72 1007.8
20260505190053 28 148 4.8 19.3 0.00 0.00 0.00 72 1007.7
20260505185542 28 196 6.4 20.9 0.00 0.00 0.00 72 1007.8
20260505185037 28 243 6.4 24.1 0.00 0.00 0.00 72 1007.7
20260505184552 28 198 9.7 24.1 0.00 0.00 0.00 71 1007.8
20260505184037 28 227 9.7 19.3 0.00 0.00 0.00 71 1007.8
20260505183537 28 33 6.4 20.9 0.00 0.00 0.00 72 1007.8
20260505183048 28 192 8.0 20.9 0.00 0.00 0.00 72 1007.9
20260505182540 28 202 4.8 16.1 0.00 0.00 0.00 74 1007.9
20260505182037 28 187 8.0 20.9 0.00 0.00 0.00 75 1008.0
20260505181544 28 230 9.7 20.9 0.00 0.00 0.00 74 1008.0
20260505181041 28 146 8.0 20.9 0.00 0.00 0.00 75 1008.0
20260505180541 27 214 9.7 20.9 0.00 0.00 0.00 74 1008.0
20260505180048 27 192 8.0 19.3 0.00 0.00 0.00 74 1008.2
20260505175540 27 166 9.7 19.3 0.00 0.00 0.00 75 1008.3
20260505175037 27 145 11.3 19.3 0.00 0.00 0.00 75 1008.2
20260505174553 27 170 8.0 27.4 0.00 0.00 0.00 77 1008.3
20260505174037 27 145 6.4 27.4 0.00 0.00 0.00 78 1008.4
20260505173537 27 195 9.7 27.4 0.00 0.00 0.00 78 1008.5
20260505173047 27 211 8.0 19.3 0.00 0.00 0.00 79 1008.6
20260505172534 26 235 6.4 19.3 0.00 0.00 0.00 79 1008.7
20260505172033 26 231 4.8 19.3 0.00 0.00 0.00 79 1008.7
20260505171547 26 218 4.8 19.3 0.00 0.00 0.00 79 1008.8
20260505171037 26 222 6.4 17.7 0.00 0.00 0.00 80 1008.9
20260505170537 26 149 4.8 17.7 0.00 0.00 0.00 81 1008.9
20260505170047 26 182 4.8 24.1 0.00 0.00 0.00 81 1008.9
20260505165534 26 128 6.4 25.7 0.00 0.00 0.00 81 1008.8
20260505165034 26 122 9.7 27.4 0.00 0.00 0.00 82 1008.8
20260505164548 25 128 8.0 27.4 0.00 0.00 0.00 83 1008.9
20260505164034 25 126 8.0 19.3 0.00 0.00 0.00 83 1008.8
20260505163537 25 213 4.8 14.5 0.00 0.00 0.00 84 1008.9
20260505163052 25 200 4.8 14.5 0.00 0.00 0.00 85 1008.9
20260505162541 25 212 4.8 16.1 0.00 0.00 0.00 85 1008.9
20260505162037 25 127 4.8 16.1 0.00 0.00 0.00 85 1008.9
20260505161548 24 235 3.2 14.5 0.00 0.00 0.00 86 1008.9
20260505161036 24 223 4.8 14.5 0.00 0.00 0.00 86 1009.0
20260505160537 24 241 4.8 14.5 0.00 0.00 0.00 86 1009.1
20260505153051 23 198 6.4 14.5 0.00 0.00 0.00 88 1008.9
20260505152534 23 187 4.8 12.9 0.00 0.00 0.00 88 1008.9
20260505152035 23 206 3.2 19.3 0.00 0.00 0.00 89 1008.9
20260505151547 23 205 4.8 19.3 0.00 0.00 0.00 89 1008.9
20260505151034 22 184 6.4 19.3 0.00 0.00 0.00 89 1008.9
20260505150534 22 201 6.4 14.5 0.00 0.00 0.00 89 1008.8
20260505140534 22 210 4.8 14.5 0.00 0.00 0.00 90 1008.6
20260505125032 21 121 4.8 16.1 0.00 0.00 0.00 90 1008.3
20260505124546 21 198 3.2 17.7 0.00 0.00 0.00 90 1008.1
20260505124033 21 148 4.8 17.7 0.00 0.00 0.00 90 1008.3
20260505123536 21 140 4.8 11.3 0.00 0.00 0.00 90 1008.2
20260505123055 21 156 4.8 11.3 0.00 0.00 0.00 90 1008.3
20260505122535 21 178 4.8 11.3 0.00 0.00 0.00 90 1008.3
20260505122035 21 227 1.6 14.5 0.00 0.00 0.00 90 1008.4
20260505121548 21 218 4.8 16.1 0.00 0.00 0.00 90 1007.9
20260505121032 21 239 6.4 16.1 0.00 0.00 0.00 90 1007.6
20260505120536 21 208 6.4 14.5 0.00 0.00 0.00 90 1007.7
20260505120057 21 227 6.4 14.5 0.00 0.00 0.00 90 1007.6
20260505115534 21 163 6.4 12.9 0.00 0.00 0.00 90 1007.5
20260505115035 21 167 3.2 14.5 0.00 0.00 0.00 91 1007.7
20260505114548 21 168 4.8 14.5 0.00 0.00 0.00 91 1007.7
20260505114032 21 223 3.2 14.5 0.00 0.00 0.00 90 1007.7
20260505113535 21 227 6.4 14.5 0.00 0.00 0.00 90 1007.8
20260505113052 21 204 4.8 14.5 0.00 0.00 0.00 91 1007.6
20260505112535 21 223 3.2 11.3 0.00 0.00 0.00 91 1007.5
20260505112035 21 267 3.2 14.5 0.00 0.00 0.00 91 1007.7
20260505111548 21 188 4.8 14.5 0.00 0.00 0.00 91 1007.6
20260505111038 21 169 4.8 11.3 0.00 0.00 0.00 91 1007.5
20260505110533 21 138 3.2 11.3 0.00 0.00 0.00 91 1007.7
20260505102035 20 165 3.2 11.3 0.00 0.00 0.00 90 1007.6
20260505101554 20 202 3.2 11.3 0.00 0.00 0.00 90 1008.0
20260505101032 20 193 3.2 12.9 0.00 0.00 0.00 90 1007.7
20260505100533 20 234 4.8 14.5 0.00 0.00 0.00 90 1007.7
20260505100047 20 150 6.4 14.5 0.00 0.00 0.00 90 1007.6
20260505095535 20 195 4.8 12.9 0.00 0.00 0.00 90 1007.7
20260505095033 20 179 4.8 14.5 0.00 0.00 0.00 90 1007.7
20260505094557 20 109 3.2 16.1 0.00 0.00 0.00 90 1007.8
20260505094034 20 182 6.4 17.7 0.00 0.00 0.00 90 1007.8
20260505093535 20 175 6.4 17.7 0.00 0.00 0.00 90 1008.0
20260505093053 20 148 4.8 11.3 0.00 0.00 0.00 89 1007.9
20260505092535 20 192 3.2 14.5 0.00 0.00 0.00 89 1007.7
20260505092037 20 155 4.8 14.5 0.00 0.00 0.00 89 1007.9
20260505091550 20 164 3.2 11.3 0.00 0.00 0.00 89 1007.8
20260505091034 20 146 4.8 14.5 0.00 0.00 0.00 89 1007.9
20260505090535 20 144 3.2 14.5 0.00 0.00 0.00 89 1008.0
20260505090057 20 178 4.8 14.5 0.00 0.00 0.00 89 1007.9
20260505085537 20 122 4.8 14.5 0.00 0.00 0.00 89 1008.0
20260505085035 20 192 4.8 12.9 0.00 0.00 0.00 88 1008.2
20260505084548 20 194 4.8 12.9 0.00 0.00 0.00 88 1008.4
20260505084034 20 174 4.8 12.9 0.00 0.00 0.00 88 1008.4
20260505083538 20 186 3.2 12.9 0.00 0.00 0.00 88 1008.5
20260505083102 20 149 3.2 11.3 0.00 0.00 0.00 88 1008.6
20260505082532 20 199 6.4 12.9 0.00 0.00 0.00 88 1008.7
20260505082034 20 212 4.8 12.9 0.00 0.00 0.00 87 1008.7
20260505081550 20 213 3.2 11.3 0.00 0.00 0.00 87 1008.6
20260505081035 20 213 4.8 14.5 0.00 0.00 0.00 87 1008.8
20260505080536 20 185 3.2 14.5 0.00 0.00 0.00 87 1008.9
20260505080046 20 167 4.8 14.5 0.00 0.00 0.00 87 1008.9
20260505075535 20 188 4.8 12.9 0.00 0.00 0.00 87 1009.0
20260505075035 20 178 4.8 14.5 0.00 0.00 0.00 87 1008.9
20260505074549 20 213 4.8 14.5 0.00 0.00 0.00 87 1008.9
20260505074035 20 258 4.8 12.9 0.00 0.00 0.00 87 1008.9
20260505073535 20 190 4.8 12.9 0.00 0.00 0.00 87 1009.0
20260505073051 20 228 4.8 12.9 0.00 0.00 0.00 87 1008.9
20260505072535 20 210 6.4 12.9 0.00 0.00 0.00 86 1009.0
20260505072034 20 236 4.8 12.9 0.00 0.00 0.00 86 1009.0
20260505071552 20 184 4.8 12.9 0.00 0.00 0.00 86 1009.1
20260505071035 20 219 4.8 14.5 0.00 0.00 0.00 86 1009.2
20260505070536 20 188 4.8 14.5 0.00 0.00 0.00 86 1009.2
20260505065536 20 194 4.8 11.3 0.00 0.00 0.00 85 1009.4
20260505065034 20 167 3.2 11.3 0.00 0.00 0.00 85 1009.5
20260505064556 20 170 4.8 12.9 0.00 0.00 0.00 85 1009.6
20260505064035 20 202 6.4 17.7 0.00 0.00 0.00 85 1009.7
20260505063535 20 143 6.4 17.7 0.00 0.00 0.00 85 1009.6
20260505063051 20 211 6.4 17.7 0.00 0.00 0.00 85 1009.6
20260505062535 20 211 6.4 16.1 0.00 0.00 0.00 85 1009.7
20260505062037 20 186 8.0 16.1 0.00 0.00 0.00 84 1009.7
20260505061610 20 145 4.8 14.5 0.00 0.00 0.00 84 1009.7
20260505061035 21 168 6.4 14.5 0.00 0.00 0.00 84 1009.5
20260505060536 21 181 4.8 17.7 0.00 0.00 0.00 84 1009.5
20260505060057 21 184 4.8 17.7 0.00 0.00 0.00 84 1009.3
20260505055535 21 185 8.0 17.7 0.00 0.00 0.00 83 1009.4
20260505055037 21 178 6.4 20.9 0.00 0.00 0.00 83 1009.5
20260505054556 21 159 9.7 20.9 0.00 0.00 0.00 83 1009.6
20260505054034 21 147 6.4 20.9 0.00 0.00 0.00 83 1009.7
20260505053534 21 144 6.4 20.9 0.00 0.00 0.00 83 1009.7
20260505053048 21 197 8.0 22.5 0.00 0.00 0.00 82 1009.7
20260505052537 21 222 9.7 22.5 0.00 0.00 0.00 82 1009.5
20260505052037 21 137 9.7 22.5 0.00 0.00 0.00 82 1009.5
20260505051547 21 122 9.7 17.7 0.00 0.00 0.00 82 1009.5
20260505051038 21 174 8.0 24.1 0.00 0.00 0.00 82 1009.4
20260505050536 21 181 9.7 24.1 0.00 0.00 0.00 81 1009.5
20260505041548 22 198 8.0 25.7 0.00 0.00 0.00 80 1009.9
20260505041039 22 190 6.4 16.1 0.00 0.00 0.00 79 1010.0
20260505040536 22 165 6.4 16.1 0.00 0.00 0.00 79 1010.0
20260505040101 22 229 9.7 19.3 0.00 0.00 0.00 79 1009.9
20260505035536 22 239 8.0 19.3 0.00 0.00 0.00 78 1009.8
20260505035037 22 161 6.4 20.9 0.00 0.00 0.00 78 1009.7
20260505034548 22 201 8.0 20.9 0.00 0.00 0.00 78 1009.7
20260505034036 22 182 8.0 20.9 0.00 0.00 0.00 78 1009.7
20260505033536 22 209 8.0 20.9 0.00 0.00 0.00 78 1009.7
20260505033059 22 167 8.0 17.7 0.00 0.00 0.00 78 1009.7
20260505032535 22 167 6.4 20.9 0.00 0.00 0.00 78 1009.9
20260505032037 22 199 9.7 20.9 0.00 0.00 0.00 77 1009.8
20260505031552 22 206 9.7 17.7 0.00 0.00 0.00 77 1009.6
20260505031035 22 211 6.4 16.1 0.00 0.00 0.00 77 1009.7
20260505030535 22 168 6.4 20.9 0.00 0.00 0.00 77 1009.6
20260505030058 22 230 8.0 20.9 0.00 0.00 0.00 77 1009.8
20260505025533 22 217 8.0 17.7 0.00 0.00 0.00 77 1009.7
20260505025038 22 186 6.4 16.1 0.00 0.00 0.00 77 1009.7
20260505024545 22 209 4.8 12.9 0.00 0.00 0.00 77 1009.6
20260505024035 22 151 4.8 12.9 0.00 0.00 0.00 77 1009.5
20260505023534 22 161 4.8 11.3 0.00 0.00 0.00 76 1009.6
20260505023047 23 167 4.8 12.9 0.00 0.00 0.00 76 1009.6
20260505022535 23 213 3.2 12.9 0.00 0.00 0.00 75 1009.5
20260505022035 23 163 3.2 11.3 0.00 0.00 0.00 75 1009.5
20260505021551 23 140 4.8 11.3 0.00 0.00 0.00 75 1009.5
20260505021035 23 212 3.2 14.5 0.00 0.00 0.00 74 1009.6
20260505020535 23 211 6.4 14.5 0.00 0.00 0.00 74 1009.5
20260505020047 23 146 4.8 14.5 0.00 0.00 0.00 74 1009.4
20260505015535 23 178 4.8 16.1 0.00 0.00 0.00 73 1009.3
20260505015035 23 171 6.4 17.7 0.00 0.00 0.00 73 1009.2
20260505014549 23 132 6.4 17.7 0.00 0.00 0.00 73 1009.1
20260505014035 23 230 6.4 16.1 0.00 0.00 0.00 72 1009.1
20260505013534 23 197 6.4 25.7 0.00 0.00 0.00 72 1009.3
20260505013045 24 190 6.4 25.7 0.00 0.00 0.00 72 1009.3
20260505012535 24 208 6.4 17.7 0.00 0.00 0.00 72 1009.3
20260505012039 24 209 9.7 24.1 0.00 0.00 0.00 72 1009.3
20260505011548 24 265 9.7 24.1 0.00 0.00 0.00 71 1009.2
20260505011035 24 132 8.0 19.3 0.00 0.00 0.00 71 1009.2
20260505010535 24 198 9.7 19.3 0.00 0.00 0.00 71 1009.1
20260505010056 24 169 8.0 17.7 0.00 0.00 0.00 70 1009.1
20260505005535 24 142 6.4 16.1 0.00 0.00 0.00 70 1009.1
20260505005035 25 127 6.4 19.3 0.00 0.00 0.00 70 1009.0
20260505004552 25 145 8.0 19.3 0.00 0.00 0.00 69 1009.1
20260505004034 25 175 6.4 16.1 0.00 0.00 0.00 69 1009.1
20260505003534 25 203 4.8 16.1 0.00 0.00 0.00 68 1009.2
20260505003047 25 206 4.8 14.5 0.00 0.00 0.00 68 1009.1
20260505002535 25 159 6.4 14.5 0.00 0.00 0.00 68 1009.4
20260505002035 25 202 4.8 27.4 0.00 0.00 0.00 67 1009.4
20260505001545 25 132 9.7 27.4 0.00 0.00 0.00 67 1009.4
20260505001037 25 181 8.0 20.9 0.00 0.00 0.00 67 1009.4
20260505000535 25 183 11.3 20.9 0.00 0.00 0.00 66 1009.4
20260505000056 25 141 6.4 17.7 0.00 0.00 0.00 66 1009.4
20260504235535 25 146 4.8 24.1 0.00 0.00 0.00 66 1009.4
20260504235035 26 206 9.7 24.1 0.00 0.00 0.00 65 1009.5
20260504234604 26 96 9.7 22.5 0.00 0.00 0.00 64 1009.5
20260504234035 26 166 6.4 19.3 0.00 0.00 0.00 64 1009.5
20260504233535 26 136 9.7 20.9 0.00 0.00 0.00 63 1009.5
20260504233048 26 104 9.7 20.9 0.00 0.00 0.00 63 1009.5
20260504232536 26 201 9.7 24.1 0.00 0.00 0.00 62 1009.5
20260504232034 26 180 11.3 24.1 0.00 0.00 0.00 62 1009.4
20260504231550 27 136 6.4 20.9 0.00 0.00 0.00 62 1009.4
20260504231035 26 129 6.4 19.3 0.00 0.00 0.00 63 1009.4
20260504230536 26 177 8.0 19.3 0.00 0.00 0.00 62 1009.6
20260504230048 26 165 9.7 25.7 0.00 0.00 0.00 61 1009.7
20260504225536 27 184 9.7 25.7 0.00 0.00 0.00 61 1009.8
20260504225035 27 210 6.4 20.9 0.00 0.00 0.00 62 1009.8
20260504224545 27 189 4.8 16.1 0.00 0.00 0.00 62 1009.8
20260504224039 27 202 9.7 17.7 0.00 0.00 0.00 61 1009.9
20260504223535 27 124 9.7 17.7 0.00 0.00 0.00 61 1009.9
20260504223053 27 211 6.4 19.3 0.00 0.00 0.00 62 1010.0
20260504222531 26 163 8.0 19.3 0.00 0.00 0.00 62 1009.9
20260504222034 26 191 6.4 17.7 0.00 0.00 0.00 62 1009.8